AirNav   Air Wisconsin pilot careers
 
 628 users online  

CA84 Torrey Pines Gliderport
San Diego, California, USA

GOING TO SAN DIEGO?


FAA INFORMATION EFFECTIVE 08 NOVEMBER 2018

Location

FAA Identifier: CA84
Lat/Long: 32-53-23.0000N / 117-14-49.0000W
32-53.383333N / 117-14.816667W
32.8897222 / -117.2469444
(estimated)
Elevation: 372 ft. / 113 m (estimated)
Variation: 13E (1985)
From city: 11 miles NW of SAN DIEGO, CA
Time zone: UTC -8 (UTC -7 during Daylight Saving Time)
Zip code: 92037

Gliderport Operations

Gliderport use: Private use. Permission required prior to landing
Activation date: 11/1961
Control tower: no
ARTCC: LOS ANGELES CENTER
FSS: SAN DIEGO FLIGHT SERVICE STATION
Attendance: UNATNDD
Wind indicator: no
Segmented circle: no

Gliderport Communications

WX ASOS at MYF (7 nm SE): 126.9 (858-576-4337)
WX ASOS at SAN (10 nm S): PHONE 619-296-8934
WX AWOS-3P at SEE (14 nm E): 125.45 (619-449-1228)
WX ASOS at CRQ (14 nm N): PHONE 760-930-0864
WX ASOS at RNM (19 nm NE): 132.025 (760-789-0736)

Nearby radio navigation aids

VOR radial/distance  VOR name  Freq  Var
MZBr335/6.5MISSION BAY VORTAC117.8015E
PGYr307/21.5POGGI VORTAC109.8014E
OCNr143/22.7OCEANSIDE VORTAC115.3015E
TIJr311/25.7TIJUANA VOR/DME116.5014E
JLIr231/36.5JULIAN VORTAC114.0015E

Gliderport Services

Airframe service: NONE
Powerplant service: NONE

Runway Information

Runway 9/27

Dimensions: 1500 x 30 ft. / 457 x 9 m
Surface: asphalt
RUNWAY 9  RUNWAY 27
Traffic pattern: leftleft
Obstructions: nonetrees, 100 ft. from runway

Gliderport Ownership and Management from official FAA records

Ownership: Publicly-owned
Owner: CITY OF SAN DIEGO
Manager: JIM FROST
4740 HARBINSON AVE
LA MESA, CA 91941
Phone 619-461-9614
WORK PHONE 619-535-9505 EXT 1585

Additional Remarks

GLIDER PORT IS LEASED FM CITY TO THE ASSOCD GLIDER CLUB OF SOUTHERN CALIF FOR STUDENT TRAINING & RIDGE SOARING.
ALL ACFT ARE TRAILERED GLIDERS.
ROLLING RWY .6 PERCENT GRADIENT.
EXTENSIVE HANG GLIDER OPERATIONS ON WEEKENDS AND WEEKDAYS.

Instrument Procedures

There are no published instrument procedures at CA84.

Some nearby airports with instrument procedures:

KNKX - Miramar MCAS (Joe Foss Field) Airport (5 nm E)
KMYF - Montgomery-Gibbs Executive Airport (7 nm SE)
KSAN - San Diego International Airport (10 nm S)
KNZY - North Island Naval Air Station (Halsey Field) (12 nm S)
KSEE - Gillespie Field Airport (14 nm E)
KCRQ - Mc Clellan-Palomar Airport (14 nm N)
KRNM - Ramona Airport (19 nm NE)
 
Loc | Ops | Rwys | IFR | FBO | Links
Com | Nav | Svcs | Stats | Notes


 
Area around CA84 (Torrey Pines Gliderport)
 
Road maps at: MapQuest Bing Google
 
Aerial photo
WARNING: Photo may not be current or correct
Aerial photo of CA84 (Torrey Pines Gliderport)
Photo by Doug Fronius
Photo taken 13-Mar-2004
from a 1942 Schweizer TG-2 sailplane.

Do you have a better or more recent aerial photo of Torrey Pines Gliderport that you would like to share? If so, please send us your photo.

 
Sectional chart

 
Airport distance calculator
Flying to Torrey Pines Gliderport? Find the distance to fly.

From to CA84

Sunrise and sunset
Times for 18-Nov-2018
 Local
(UTC-8)
 Zulu
(UTC)
Morning civil twilight05:5713:57
Sunrise06:2314:23
Sunset16:4500:45
Evening civil twilight17:1201:12

Current date and time
Zulu (UTC)  18-Nov-2018 13:24:07
Local (UTC-8)  18-Nov-2018 05:24:07
 
METAR
KNKX 
6nm E 
181255Z 09005KT 10SM CLR 11/05 A3005 RMK AO2 SLP172 T01060050 $
KMYF 
7nm SE 
181253Z AUTO 00000KT 10SM CLR 11/04 A3006 RMK AO2 SLP176 T01110039
KSAN 
10nm S 
181251Z 00000KT 10SM SCT250 14/05 A3007 RMK AO2 SLP183 T01390050
KNZY 
11nm S 
181152Z AUTO 00000KT 8SM CLR 12/10 A3004 RMK AO2 SLP172 T01220100 10156 20122 55001
KCRQ 
15nm N 
181253Z 08003KT 10SM CLR 12/06 A3004 RMK AO2 SLP172 T01170056
KSEE 
15nm E 
181255Z AUTO 00000KT 10SM CLR 08/04 A3006 RMK AO2
KRNM 
19nm NE 
181253Z AUTO 00000KT 10SM CLR 04/M04 A3007 RMK AO2 SLP179 T00391039 $
TAF
KNKX 
6nm E 
1809/1909 VRB05KT 9999 SKC QNH3002INS BECMG 1818/1820 30008KT 9999 SKC QNH2998INS BECMG 1903/1905 VRB05KT 9999 SKC QNH3003INS T11/1811Z T22/1821Z
KSAN 
10nm S 
181140Z 1812/1918 29006KT P6SM FEW010 SCT250
KNZY 
11nm S 
1807/1907 VRB04KT 9999 SCT008 SCT200 QNH2998INS TEMPO 1809/1815 3200 BR BKN007 FM182000 29008KT 9999 SCT010 BKN250 QNH2995INS AUTOMATED SENSOR METWATCH 1807 TIL 1815 T12/1813Z T21/1822Z FS30125
KCRQ 
15nm N 
181140Z 1812/1912 27004KT P6SM FEW010 SCT250
NOTAMs
Click for the latest NOTAMs
NOTAMs are issued by the DoD/FAA and will open in a separate window not controlled by AirNav.

 

 
 

Would you like to see your business listed on this page?

 If your business provides an interesting product or service to pilots, flight crews, aircraft, or users of the Torrey Pines Gliderport, you should consider listing it here.  To start the listing process, click on the button below
 
Add a business
 

Other Pages about Torrey Pines Gliderport

www.agcsc.org/torrey_pines_info.html
 
Update a link
 
Copyright © AirNav, LLC. All rights reserved. Privacy Policy  Contact